This is the latest recevied weather packets stored in our database for station/object N2QDK-2. If no packets are shown the sender has not sent any weather packets the latest 10 day(s).
| Time | Temp. | Humidity | Pressure | Rain* | Wind** | Luminosity | Snow |
|---|---|---|---|---|---|---|---|
| 1777501517 | 7.22° C | 97% | 1006.9 hPa | 4.57 mm | - | - | - |
| 1777500917 | 7.22° C | 97% | 1006.7 hPa | 3.05 mm | - | - | - |
| 1777500317 | 7.22° C | 96% | 1006.5 hPa | 2.54 mm | - | - | - |
| 1777499717 | 7.22° C | 96% | 1006.5 hPa | 1.78 mm | - | - | - |
| 1777499117 | 7.22° C | 96% | 1006.7 hPa | 1.02 mm | - | - | - |
| 1777498517 | 7.22° C | 95% | 1006.9 hPa | 0.51 mm | - | - | - |
| 1777497917 | 8.33° C | 95% | 1006.9 hPa | 0.51 mm | - | - | - |
| 1777497317 | 9.44° C | 97% | 1006.9 hPa | 0.76 mm | - | - | - |
| 1777496717 | 9.44° C | 96% | 1006.8 hPa | 0.76 mm | - | - | - |
| 1777496117 | 9.44° C | 97% | 1006.9 hPa | 1.02 mm | - | - | - |
| 1777495517 | 8.89° C | 97% | 1006.8 hPa | 1.27 mm | - | - | - |
| 1777494917 | 8.89° C | 96% | 1007 hPa | 1.52 mm | - | - | - |
| 1777494317 | 8.89° C | 96% | 1007.2 hPa | 1.78 mm | - | - | - |
| 1777493717 | 8.89° C | 96% | 1007.2 hPa | 2.03 mm | - | - | - |
| 1777493117 | 8.33° C | 96% | 1007.6 hPa | 2.29 mm | - | - | - |
| 1777492517 | 8.33° C | 96% | 1007.6 hPa | 2.29 mm | - | - | - |
| 1777491917 | 8.33° C | 96% | 1007.5 hPa | 2.54 mm | - | - | - |
| 1777491317 | 8.33° C | 96% | 1008 hPa | 3.05 mm | - | - | - |
| 1777490717 | 8.33° C | 95% | 1008.1 hPa | 3.56 mm | - | - | - |
| 1777490117 | 8.33° C | 95% | 1008 hPa | 3.3 mm | - | - | - |
| 1777489517 | 7.78° C | 95% | 1008.1 hPa | 3.05 mm | - | - | - |
| 1777488917 | 7.78° C | 94% | 1007.9 hPa | 2.79 mm | - | - | - |
| 1777488317 | 7.78° C | 93% | 1007.8 hPa | 2.54 mm | - | - | - |
| 1777487717 | 8.33° C | 92% | 1008.6 hPa | 2.03 mm | - | - | - |
| 1777487117 | 8.89° C | 92% | 1009.1 hPa | 1.02 mm | - | - | - |
* Rain latest hour (hover to see other rain measurements)
** Current wind speed in m/s (hover to see current wind gust speed)